Time,TemperatureF,DewpointF,PressureIn,WindDirection,WindDirectionDegrees,WindSpeedMPH,WindSpeedGustMPH,Humidity,HourlyPrecipIn,Conditions,Clouds,dailyrainin,SolarRadiationWatts/m^2,SoftwareType,DateUTC
2013-07-12 00:01:00,72.1,69.3,29.91,North,5,5.0,11.0,91,0.00,,,0.00,0,HR-IXPWINDi_r2_v1.2.,2013-07-12 04:01:00,
2013-07-12 00:06:00,71.9,69.1,29.91,North,5,6.0,9.0,91,0.00,,,0.00,0,HR-IXPWINDi_r2_v1.2.,2013-07-12 04:06:00,
2013-07-12 00:11:00,71.7,69.2,29.92,NNE,28,7.0,10.0,92,0.00,,,0.00,0,HR-IXPWINDi_r2_v1.2.,2013-07-12 04:11:00,
2013-07-12 00:16:00,71.6,69.1,29.92,NNE,12,7.0,10.0,92,0.00,,,0.00,0,HR-IXPWINDi_r2_v1.2.,2013-07-12 04:16:00,
2013-07-12 00:21:00,71.5,69.0,29.92,North,5,6.0,10.0,92,0.00,,,0.00,0,HR-IXPWINDi_r2_v1.2.,2013-07-12 04:21:00,
2013-07-12 00:27:00,71.4,69.2,29.92,NNE,12,6.0,10.0,93,0.00,,,0.00,0,HR-IXPWINDi_r2_v1.2.,2013-07-12 04:27:00,
2013-07-12 00:32:00,71.2,68.7,29.92,North,5,6.0,9.0,92,0.00,,,0.00,0,HR-IXPWINDi_r2_v1.2.,2013-07-12 04:32:00,
2013-07-12 00:37:00,71.1,68.9,29.92,North,5,8.0,11.0,93,0.00,,,0.00,0,HR-IXPWINDi_r2_v1.2.,2013-07-12 04:37:00,
2013-07-12 00:42:00,70.9,68.7,29.92,NE,36,4.0,11.0,93,0.00,,,0.00,0,HR-IXPWINDi_r2_v1.2.,2013-07-12 04:42:00,
2013-07-12 00:47:00,70.7,68.5,29.92,NNE,29,4.0,10.0,93,0.00,,,0.00,0,HR-IXPWINDi_r2_v1.2.,2013-07-12 04:47:00,
2013-07-12 00:52:00,70.5,68.3,29.92,NE,39,7.0,12.0,93,0.00,,,0.00,0,HR-IXPWINDi_r2_v1.2.,2013-07-12 04:52:00,
2013-07-12 00:58:00,70.4,68.5,29.92,NNE,17,8.0,12.0,94,0.00,,,0.00,0,HR-IXPWINDi_r2_v1.2.,2013-07-12 04:58:00,
2013-07-12 01:03:00,70.2,68.3,29.92,NNE,20,6.0,15.0,94,0.00,,,0.00,0,HR-IXPWINDi_r2_v1.2.,2013-07-12 05:03:00,
2013-07-12 01:08:00,70.1,68.2,29.92,NNE,24,9.0,15.0,94,0.00,,,0.00,0,HR-IXPWINDi_r2_v1.2.,2013-07-12 05:08:00,
2013-07-12 01:13:00,70.0,68.1,29.92,NNE,17,8.0,13.0,94,0.00,,,0.00,0,HR-IXPWINDi_r2_v1.2.,2013-07-12 05:13:00,
2013-07-12 01:18:00,70.0,68.1,29.92,NNE,19,8.0,13.0,94,0.00,,,0.00,0,HR-IXPWINDi_r2_v1.2.,2013-07-12 05:18:00,
2013-07-12 01:24:00,69.9,68.0,29.93,NNE,16,7.0,13.0,94,0.00,,,0.00,0,HR-IXPWINDi_r2_v1.2.,2013-07-12 05:24:00,
2013-07-12 01:29:00,69.9,68.0,29.93,NNE,14,9.0,16.0,94,0.00,,,0.00,0,HR-IXPWINDi_r2_v1.2.,2013-07-12 05:29:00,
2013-07-12 01:34:00,70.0,68.1,29.93,NNE,25,7.0,16.0,94,0.00,,,0.00,0,HR-IXPWINDi_r2_v1.2.,2013-07-12 05:34:00,
2013-07-12 01:39:00,70.1,68.2,29.93,NE,41,5.0,15.0,94,0.00,,,0.00,0,HR-IXPWINDi_r2_v1.2.,2013-07-12 05:39:00,
2013-07-12 01:44:00,70.2,68.3,29.93,NNE,26,5.0,15.0,94,0.00,,,0.00,0,HR-IXPWINDi_r2_v1.2.,2013-07-12 05:44:00,
2013-07-12 01:49:00,70.2,68.0,29.93,North,9,6.0,10.0,93,0.00,,,0.00,0,HR-IXPWINDi_r2_v1.2.,2013-07-12 05:49:00,
2013-07-12 01:54:00,70.1,67.9,29.93,NNE,27,6.0,11.0,93,0.00,,,0.00,0,HR-IXPWINDi_r2_v1.2.,2013-07-12 05:54:00,
2013-07-12 02:00:00,70.1,67.9,29.94,NNE,28,8.0,11.0,93,0.00,,,0.00,0,HR-IXPWINDi_r2_v1.2.,2013-07-12 06:00:00,
2013-07-12 02:05:00,70.1,67.9,29.93,NNE,15,7.0,15.0,93,0.00,,,0.00,0,HR-IXPWINDi_r2_v1.2.,2013-07-12 06:05:00,
2013-07-12 02:10:00,70.0,67.5,29.93,NNE,17,8.0,15.0,92,0.00,,,0.00,0,HR-IXPWINDi_r2_v1.2.,2013-07-12 06:10:00,
2013-07-12 02:15:00,70.1,67.6,29.93,NNE,15,7.0,15.0,92,0.00,,,0.00,0,HR-IXPWINDi_r2_v1.2.,2013-07-12 06:15:00,
2013-07-12 02:20:00,70.2,67.7,29.94,North,355,6.0,15.0,92,0.00,,,0.00,0,HR-IXPWINDi_r2_v1.2.,2013-07-12 06:20:00,
2013-07-12 02:25:00,70.2,67.4,29.94,NNE,26,10.0,17.0,91,0.00,,,0.00,0,HR-IXPWINDi_r2_v1.2.,2013-07-12 06:25:00,
2013-07-12 02:31:00,70.3,67.2,29.94,North,10,7.0,17.0,90,0.00,,,0.00,0,HR-IXPWINDi_r2_v1.2.,2013-07-12 06:31:00,
2013-07-12 02:36:00,70.3,66.8,29.94,North,5,9.0,16.0,89,0.00,,,0.00,0,HR-IXPWINDi_r2_v1.2.,2013-07-12 06:36:00,
2013-07-12 02:41:00,70.4,66.6,29.94,NNE,20,14.0,18.0,88,0.00,,,0.00,0,HR-IXPWINDi_r2_v1.2.,2013-07-12 06:41:00,
2013-07-12 02:46:00,70.5,66.0,29.94,NNE,16,11.0,19.0,86,0.00,,,0.00,0,HR-IXPWINDi_r2_v1.2.,2013-07-12 06:46:00,
2013-07-12 02:51:00,70.5,65.7,29.94,NNE,17,7.0,19.0,85,0.00,,,0.00,0,HR-IXPWINDi_r2_v1.2.,2013-07-12 06:51:00,
2013-07-12 02:57:00,70.5,65.4,29.94,NNE,13,10.0,17.0,84,0.00,,,0.00,0,HR-IXPWINDi_r2_v1.2.,2013-07-12 06:57:00,
2013-07-12 03:02:00,70.4,65.3,29.94,NNE,24,10.0,16.0,84,0.00,,,0.00,0,HR-IXPWINDi_r2_v1.2.,2013-07-12 07:02:00,
2013-07-12 03:07:00,70.3,65.2,29.95,NNW,345,8.0,20.0,84,0.00,,,0.00,0,HR-IXPWINDi_r2_v1.2.,2013-07-12 07:07:00,
2013-07-12 03:12:00,70.2,65.1,29.95,NNE,22,12.0,20.0,84,0.00,,,0.00,0,HR-IXPWINDi_r2_v1.2.,2013-07-12 07:12:00,
2013-07-12 03:17:00,70.1,65.3,29.95,North,9,6.0,17.0,85,0.00,,,0.00,0,HR-IXPWINDi_r2_v1.2.,2013-07-12 07:17:00,
2013-07-12 03:23:00,69.9,65.1,29.96,NNE,24,10.0,21.0,85,0.00,,,0.00,0,HR-IXPWINDi_r2_v1.2.,2013-07-12 07:23:00,
2013-07-12 03:28:00,69.8,65.4,29.96,North,10,11.0,21.0,86,0.00,,,0.00,0,HR-IXPWINDi_r2_v1.2.,2013-07-12 07:28:00,
2013-07-12 03:33:00,69.6,65.5,29.97,NNE,17,8.0,15.0,87,0.00,,,0.00,0,HR-IXPWINDi_r2_v1.2.,2013-07-12 07:33:00,
2013-07-12 03:38:00,69.5,65.4,29.97,NE,34,10.0,16.0,87,0.00,,,0.00,0,HR-IXPWINDi_r2_v1.2.,2013-07-12 07:38:00,
2013-07-12 03:43:00,69.4,65.6,29.97,NNE,22,7.0,19.0,88,0.00,,,0.00,0,HR-IXPWINDi_r2_v1.2.,2013-07-12 07:43:00,
2013-07-12 03:49:00,69.3,65.9,29.97,NE,35,10.0,19.0,89,0.00,,,0.00,0,HR-IXPWINDi_r2_v1.2.,2013-07-12 07:49:00,
2013-07-12 03:54:00,69.1,65.7,29.97,NNE,14,10.0,18.0,89,0.00,,,0.00,0,HR-IXPWINDi_r2_v1.2.,2013-07-12 07:54:00,
2013-07-12 03:59:00,69.0,65.6,29.97,NNE,14,7.0,18.0,89,0.00,,,0.00,0,HR-IXPWINDi_r2_v1.2.,2013-07-12 07:59:00,
2013-07-12 04:04:00,68.9,65.5,29.98,NE,36,5.0,14.0,89,0.00,,,0.00,0,HR-IXPWINDi_r2_v1.2.,2013-07-12 08:04:00,
2013-07-12 04:10:00,68.9,65.5,29.98,NE,34,13.0,14.0,89,0.00,,,0.00,0,HR-IXPWINDi_r2_v1.2.,2013-07-12 08:10:00,
2013-07-12 04:15:00,68.9,65.1,29.98,NE,39,9.0,16.0,88,0.00,,,0.00,0,HR-IXPWINDi_r2_v1.2.,2013-07-12 08:15:00,
2013-07-12 04:20:00,68.8,65.0,29.99,NNE,15,10.0,16.0,88,0.00,,,0.00,0,HR-IXPWINDi_r2_v1.2.,2013-07-12 08:20:00,
2013-07-12 04:25:00,68.8,65.0,29.99,NE,39,7.0,15.0,88,0.00,,,0.00,0,HR-IXPWINDi_r2_v1.2.,2013-07-12 08:25:00,
2013-07-12 04:30:00,68.7,64.6,29.99,NNE,28,10.0,16.0,87,0.00,,,0.00,0,HR-IXPWINDi_r2_v1.2.,2013-07-12 08:30:00,
2013-07-12 04:36:00,68.9,64.5,29.99,NE,41,9.0,16.0,86,0.00,,,0.00,0,HR-IXPWINDi_r2_v1.2.,2013-07-12 08:36:00,
2013-07-12 04:41:00,68.9,63.8,29.99,NE,49,9.0,16.0,84,0.00,,,0.00,0,HR-IXPWINDi_r2_v1.2.,2013-07-12 08:41:00,
2013-07-12 04:46:00,68.9,63.8,30.00,NNE,15,4.0,16.0,84,0.00,,,0.00,0,HR-IXPWINDi_r2_v1.2.,2013-07-12 08:46:00,
2013-07-12 04:51:00,68.9,63.8,30.00,NE,42,10.0,16.0,84,0.00,,,0.00,0,HR-IXPWINDi_r2_v1.2.,2013-07-12 08:51:00,
2013-07-12 04:56:00,68.8,63.4,30.00,NNE,19,7.0,14.0,83,0.00,,,0.00,0,HR-IXPWINDi_r2_v1.2.,2013-07-12 08:56:00,
2013-07-12 05:01:00,68.8,63.0,30.00,NNE,21,11.0,16.0,82,0.00,,,0.00,0,HR-IXPWINDi_r2_v1.2.,2013-07-12 09:01:00,
2013-07-12 05:07:00,68.9,62.8,30.00,NNE,23,7.0,16.0,81,0.00,,,0.00,0,HR-IXPWINDi_r2_v1.2.,2013-07-12 09:07:00,
2013-07-12 05:12:00,68.9,62.4,30.00,NNE,31,8.0,18.0,80,0.00,,,0.00,0,HR-IXPWINDi_r2_v1.2.,2013-07-12 09:12:00,
2013-07-12 05:17:00,69.0,61.8,30.00,NNE,22,13.0,18.0,78,0.00,,,0.00,0,HR-IXPWINDi_r2_v1.2.,2013-07-12 09:17:00,
2013-07-12 05:22:00,69.0,61.4,30.00,NE,37,13.0,18.0,77,0.00,,,0.00,5,HR-IXPWINDi_r2_v1.2.,2013-07-12 09:22:00,
2013-07-12 05:27:00,69.1,61.5,30.00,ENE,66,8.0,16.0,77,0.00,,,0.00,9,HR-IXPWINDi_r2_v1.2.,2013-07-12 09:27:00,
2013-07-12 05:33:00,69.2,60.9,30.00,NNE,31,14.0,21.0,75,0.00,,,0.00,11,HR-IXPWINDi_r2_v1.2.,2013-07-12 09:33:00,
2013-07-12 05:38:00,69.2,60.9,30.00,NE,41,10.0,21.0,75,0.00,,,0.00,14,HR-IXPWINDi_r2_v1.2.,2013-07-12 09:38:00,
2013-07-12 05:43:00,69.1,60.4,30.01,NE,37,11.0,19.0,74,0.00,,,0.00,18,HR-IXPWINDi_r2_v1.2.,2013-07-12 09:43:00,
2013-07-12 05:49:00,69.1,60.4,30.01,NNE,21,8.0,19.0,74,0.00,,,0.00,26,HR-IXPWINDi_r2_v1.2.,2013-07-12 09:49:00,
2013-07-12 05:54:00,69.0,60.7,30.01,NNE,26,14.0,19.0,75,0.00,,,0.00,30,HR-IXPWINDi_r2_v1.2.,2013-07-12 09:54:00,
2013-07-12 05:59:00,68.9,60.6,30.02,NE,45,13.0,20.0,75,0.00,,,0.00,37,HR-IXPWINDi_r2_v1.2.,2013-07-12 09:59:00,
2013-07-12 06:04:00,68.9,60.6,30.02,NE,38,10.0,20.0,75,0.00,,,0.00,49,HR-IXPWINDi_r2_v1.2.,2013-07-12 10:04:00,
2013-07-12 06:10:00,68.9,60.6,30.02,NNE,29,17.0,22.0,75,0.00,,,0.00,60,HR-IXPWINDi_r2_v1.2.,2013-07-12 10:10:00,
2013-07-12 06:15:00,68.9,60.6,30.02,NE,38,9.0,22.0,75,0.00,,,0.00,53,HR-IXPWINDi_r2_v1.2.,2013-07-12 10:15:00,
2013-07-12 06:20:00,68.9,60.6,30.02,NNE,28,9.0,21.0,75,0.00,,,0.00,69,HR-IXPWINDi_r2_v1.2.,2013-07-12 10:20:00,
2013-07-12 06:25:00,68.9,60.6,30.02,NNE,28,9.0,21.0,75,0.00,,,0.00,58,HR-IXPWINDi_r2_v1.2.,2013-07-12 10:25:00,
2013-07-12 06:31:00,68.8,60.5,30.02,ENE,65,8.0,22.0,75,0.00,,,0.00,46,HR-IXPWINDi_r2_v1.2.,2013-07-12 10:31:00,
2013-07-12 06:36:00,68.8,60.1,30.02,NNE,23,13.0,22.0,74,0.00,,,0.00,65,HR-IXPWINDi_r2_v1.2.,2013-07-12 10:36:00,
2013-07-12 06:41:00,68.9,60.2,30.02,North,5,11.0,21.0,74,0.00,,,0.00,100,HR-IXPWINDi_r2_v1.2.,2013-07-12 10:41:00,
2013-07-12 06:46:00,69.0,59.9,30.02,NE,40,6.0,21.0,73,0.00,,,0.00,107,HR-IXPWINDi_r2_v1.2.,2013-07-12 10:46:00,
2013-07-12 06:51:00,69.2,60.1,30.02,NE,40,16.0,20.0,73,0.00,,,0.00,125,HR-IXPWINDi_r2_v1.2.,2013-07-12 10:51:00,
2013-07-12 06:56:00,69.4,60.3,30.03,NNE,27,9.0,20.0,73,0.00,,,0.00,142,HR-IXPWINDi_r2_v1.2.,2013-07-12 10:56:00,
2013-07-12 07:01:00,69.4,60.3,30.03,NE,36,14.0,20.0,73,0.00,,,0.00,123,HR-IXPWINDi_r2_v1.2.,2013-07-12 11:01:00,
2013-07-12 07:07:00,69.3,60.2,30.03,NE,49,11.0,19.0,73,0.00,,,0.00,160,HR-IXPWINDi_r2_v1.2.,2013-07-12 11:07:00,
2013-07-12 07:12:00,69.5,60.4,30.03,NNE,32,9.0,21.0,73,0.00,,,0.00,207,HR-IXPWINDi_r2_v1.2.,2013-07-12 11:12:00,
2013-07-12 07:17:00,69.5,60.4,30.04,NE,56,10.0,22.0,73,0.00,,,0.00,178,HR-IXPWINDi_r2_v1.2.,2013-07-12 11:17:00,
2013-07-12 07:22:00,69.4,60.3,30.04,NNW,348,10.0,22.0,73,0.00,,,0.00,128,HR-IXPWINDi_r2_v1.2.,2013-07-12 11:22:00,
2013-07-12 07:28:00,69.3,60.2,30.04,NE,36,14.0,20.0,73,0.00,,,0.00,134,HR-IXPWINDi_r2_v1.2.,2013-07-12 11:28:00,
2013-07-12 07:33:00,69.3,60.6,30.05,NNE,13,14.0,20.0,74,0.00,,,0.00,155,HR-IXPWINDi_r2_v1.2.,2013-07-12 11:33:00,
2013-07-12 07:38:00,69.3,60.6,30.05,NNE,24,9.0,21.0,74,0.00,,,0.00,188,HR-IXPWINDi_r2_v1.2.,2013-07-12 11:38:00,
2013-07-12 07:43:00,69.2,60.1,30.05,North,5,11.0,21.0,73,0.00,,,0.00,160,HR-IXPWINDi_r2_v1.2.,2013-07-12 11:43:00,
2013-07-12 07:48:00,69.2,60.1,30.06,NE,42,8.0,20.0,73,0.00,,,0.00,134,HR-IXPWINDi_r2_v1.2.,2013-07-12 11:48:00,
2013-07-12 07:54:00,69.0,60.3,30.06,NNE,13,10.0,20.0,74,0.00,,,0.00,178,HR-IXPWINDi_r2_v1.2.,2013-07-12 11:54:00,
2013-07-12 07:59:00,69.3,60.6,30.06,NNE,17,15.0,16.0,74,0.00,,,0.00,338,HR-IXPWINDi_r2_v1.2.,2013-07-12 11:59:00,
2013-07-12 08:04:00,69.7,61.0,30.06,NNE,24,13.0,18.0,74,0.00,,,0.00,330,HR-IXPWINDi_r2_v1.2.,2013-07-12 12:04:00,
2013-07-12 08:10:00,69.7,60.6,30.06,North,5,10.0,21.0,73,0.00,,,0.00,197,HR-IXPWINDi_r2_v1.2.,2013-07-12 12:10:00,
2013-07-12 08:15:00,69.7,60.6,30.06,NNE,13,8.0,21.0,73,0.00,,,0.00,274,HR-IXPWINDi_r2_v1.2.,2013-07-12 12:15:00,
2013-07-12 08:20:00,69.7,60.6,30.06,North,11,8.0,20.0,73,0.00,,,0.00,253,HR-IXPWINDi_r2_v1.2.,2013-07-12 12:20:00,
2013-07-12 08:25:00,69.7,60.6,30.06,NE,51,10.0,21.0,73,0.00,,,0.00,290,HR-IXPWINDi_r2_v1.2.,2013-07-12 12:25:00,
2013-07-12 08:30:00,69.6,60.9,30.06,North,5,8.0,21.0,74,0.00,,,0.00,211,HR-IXPWINDi_r2_v1.2.,2013-07-12 12:30:00,
2013-07-12 08:35:00,69.5,60.8,30.06,NE,45,11.0,20.0,74,0.00,,,0.00,225,HR-IXPWINDi_r2_v1.2.,2013-07-12 12:35:00,
2013-07-12 08:40:00,69.6,60.9,30.07,NE,44,9.0,20.0,74,0.00,,,0.00,353,HR-IXPWINDi_r2_v1.2.,2013-07-12 12:40:00,
2013-07-12 08:45:00,69.7,61.0,30.07,North,360,16.0,20.0,74,0.00,,,0.00,281,HR-IXPWINDi_r2_v1.2.,2013-07-12 12:45:00,
2013-07-12 08:51:00,69.4,60.3,30.06,NNW,346,10.0,24.0,73,0.00,,,0.00,239,HR-IXPWINDi_r2_v1.2.,2013-07-12 12:51:00,
2013-07-12 08:56:00,69.4,60.7,30.07,NE,38,9.0,24.0,74,0.00,,,0.00,292,HR-IXPWINDi_r2_v1.2.,2013-07-12 12:56:00,
2013-07-12 09:01:00,69.4,60.7,30.07,NNE,24,12.0,21.0,74,0.00,,,0.00,311,HR-IXPWINDi_r2_v1.2.,2013-07-12 13:01:00,
2013-07-12 09:06:00,69.5,60.8,30.07,NNE,15,17.0,21.0,74,0.00,,,0.00,276,HR-IXPWINDi_r2_v1.2.,2013-07-12 13:06:00,
2013-07-12 09:11:00,69.4,60.7,30.08,NNE,31,10.0,20.0,74,0.00,,,0.00,292,HR-IXPWINDi_r2_v1.2.,2013-07-12 13:11:00,
2013-07-12 09:17:00,69.4,60.7,30.08,North,11,12.0,21.0,74,0.00,,,0.00,325,HR-IXPWINDi_r2_v1.2.,2013-07-12 13:17:00,
2013-07-12 09:22:00,69.4,60.7,30.08,NE,35,19.0,23.0,74,0.00,,,0.00,348,HR-IXPWINDi_r2_v1.2.,2013-07-12 13:22:00,
2013-07-12 09:27:00,69.7,61.0,30.08,NNE,18,15.0,23.0,74,0.00,,,0.00,417,HR-IXPWINDi_r2_v1.2.,2013-07-12 13:27:00,
2013-07-12 09:32:00,69.8,61.1,30.08,NNE,18,10.0,23.0,74,0.00,,,0.00,438,HR-IXPWINDi_r2_v1.2.,2013-07-12 13:32:00,
2013-07-12 09:37:00,70.0,60.9,30.08,NNE,31,12.0,23.0,73,0.00,,,0.00,610,HR-IXPWINDi_r2_v1.2.,2013-07-12 13:37:00,
2013-07-12 09:43:00,70.1,61.0,30.08,NE,41,9.0,25.0,73,0.00,,,0.00,459,HR-IXPWINDi_r2_v1.2.,2013-07-12 13:43:00,
2013-07-12 09:48:00,70.3,60.8,30.08,NE,49,13.0,25.0,72,0.00,,,0.00,624,HR-IXPWINDi_r2_v1.2.,2013-07-12 13:48:00,
2013-07-12 09:53:00,70.5,61.0,30.09,NNE,24,11.0,24.0,72,0.00,,,0.00,476,HR-IXPWINDi_r2_v1.2.,2013-07-12 13:53:00,
2013-07-12 09:58:00,70.7,61.2,30.09,North,11,10.0,24.0,72,0.00,,,0.00,580,HR-IXPWINDi_r2_v1.2.,2013-07-12 13:58:00,
2013-07-12 10:03:00,70.5,61.0,30.09,ENE,62,14.0,28.0,72,0.00,,,0.00,650,HR-IXPWINDi_r2_v1.2.,2013-07-12 14:03:00,
2013-07-12 10:08:00,70.6,60.7,30.09,NE,35,12.0,28.0,71,0.00,,,0.00,640,HR-IXPWINDi_r2_v1.2.,2013-07-12 14:08:00,
2013-07-12 10:14:00,70.9,61.4,30.09,ENE,75,11.0,22.0,72,0.00,,,0.00,826,HR-IXPWINDi_r2_v1.2.,2013-07-12 14:14:00,
2013-07-12 10:19:00,71.1,60.8,30.09,NE,40,14.0,21.0,70,0.00,,,0.00,756,HR-IXPWINDi_r2_v1.2.,2013-07-12 14:19:00,
2013-07-12 10:24:00,71.5,61.1,30.10,NNE,29,12.0,20.0,70,0.00,,,0.00,538,HR-IXPWINDi_r2_v1.2.,2013-07-12 14:24:00,
2013-07-12 10:29:00,71.9,61.1,30.10,NNE,19,13.0,20.0,69,0.00,,,0.00,712,HR-IXPWINDi_r2_v1.2.,2013-07-12 14:29:00,
2013-07-12 10:34:00,71.5,60.7,30.11,ENE,57,10.0,23.0,69,0.00,,,0.00,485,HR-IXPWINDi_r2_v1.2.,2013-07-12 14:34:00,
2013-07-12 10:40:00,71.2,60.9,30.11,NNE,28,10.0,23.0,70,0.00,,,0.00,526,HR-IXPWINDi_r2_v1.2.,2013-07-12 14:40:00,
2013-07-12 10:45:00,70.9,60.2,30.11,NE,48,19.0,22.0,69,0.00,,,0.00,462,HR-IXPWINDi_r2_v1.2.,2013-07-12 14:45:00,
2013-07-12 10:50:00,70.7,61.2,30.12,NNE,31,15.0,23.0,72,0.00,,,0.00,519,HR-IXPWINDi_r2_v1.2.,2013-07-12 14:50:00,
2013-07-12 10:55:00,70.6,60.7,30.12,NNE,17,16.0,22.0,71,0.00,,,0.00,410,HR-IXPWINDi_r2_v1.2.,2013-07-12 14:55:00,
2013-07-12 11:01:00,70.6,60.7,30.12,ENE,65,10.0,20.0,71,0.00,,,0.00,457,HR-IXPWINDi_r2_v1.2.,2013-07-12 15:01:00,
2013-07-12 11:06:00,70.6,60.7,30.12,NE,34,13.0,19.0,71,0.00,,,0.00,461,HR-IXPWINDi_r2_v1.2.,2013-07-12 15:06:00,
2013-07-12 11:11:00,70.4,60.5,30.12,NE,43,11.0,21.0,71,0.00,,,0.00,367,HR-IXPWINDi_r2_v1.2.,2013-07-12 15:11:00,
2013-07-12 11:16:00,70.5,60.6,30.12,NNE,27,16.0,21.0,71,0.00,,,0.00,487,HR-IXPWINDi_r2_v1.2.,2013-07-12 15:16:00,
2013-07-12 11:22:00,70.8,60.9,30.12,NNE,24,9.0,20.0,71,0.00,,,0.00,417,HR-IXPWINDi_r2_v1.2.,2013-07-12 15:22:00,
2013-07-12 11:27:00,70.9,60.6,30.12,NNE,28,19.0,19.0,70,0.00,,,0.00,450,HR-IXPWINDi_r2_v1.2.,2013-07-12 15:27:00,
2013-07-12 11:32:00,70.8,60.5,30.12,NNE,26,15.0,20.0,70,0.00,,,0.00,452,HR-IXPWINDi_r2_v1.2.,2013-07-12 15:32:00,
2013-07-12 11:38:00,70.7,60.4,30.12,NNE,30,9.0,21.0,70,0.00,,,0.00,554,HR-IXPWINDi_r2_v1.2.,2013-07-12 15:38:00,
2013-07-12 11:43:00,70.8,60.1,30.13,NNE,12,10.0,21.0,69,0.00,,,0.00,446,HR-IXPWINDi_r2_v1.2.,2013-07-12 15:43:00,
2013-07-12 11:48:00,71.2,60.9,30.13,North,5,8.0,18.0,70,0.00,,,0.00,508,HR-IXPWINDi_r2_v1.2.,2013-07-12 15:48:00,
2013-07-12 11:53:00,71.2,60.5,30.13,NNE,18,8.0,17.0,69,0.00,,,0.00,598,HR-IXPWINDi_r2_v1.2.,2013-07-12 15:53:00,
2013-07-12 11:58:00,71.3,60.1,30.13,NNE,17,9.0,18.0,68,0.00,,,0.00,585,HR-IXPWINDi_r2_v1.2.,2013-07-12 15:58:00,
2013-07-12 12:04:00,71.2,60.0,30.12,NE,40,12.0,18.0,68,0.00,,,0.00,791,HR-IXPWINDi_r2_v1.2.,2013-07-12 16:04:00,
2013-07-12 12:09:00,72.1,60.9,30.12,NNE,22,11.0,18.0,68,0.00,,,0.00,877,HR-IXPWINDi_r2_v1.2.,2013-07-12 16:09:00,
2013-07-12 12:14:00,72.0,60.4,30.13,NE,40,8.0,18.0,67,0.00,,,0.00,580,HR-IXPWINDi_r2_v1.2.,2013-07-12 16:14:00,
2013-07-12 12:19:00,72.0,60.8,30.13,North,11,11.0,18.0,68,0.00,,,0.00,466,HR-IXPWINDi_r2_v1.2.,2013-07-12 16:19:00,
2013-07-12 12:24:00,72.1,60.9,30.13,NNE,28,10.0,16.0,68,0.00,,,0.00,577,HR-IXPWINDi_r2_v1.2.,2013-07-12 16:24:00,
2013-07-12 12:29:00,72.0,60.4,30.13,ENE,72,13.0,18.0,67,0.00,,,0.00,461,HR-IXPWINDi_r2_v1.2.,2013-07-12 16:29:00,
2013-07-12 12:34:00,71.9,59.9,30.13,NNE,17,14.0,18.0,66,0.00,,,0.00,418,HR-IXPWINDi_r2_v1.2.,2013-07-12 16:34:00,
2013-07-12 12:39:00,71.7,59.7,30.13,NNE,23,14.0,20.0,66,0.00,,,0.00,341,HR-IXPWINDi_r2_v1.2.,2013-07-12 16:39:00,
2013-07-12 12:45:00,71.4,59.4,30.12,NNW,347,4.0,20.0,66,0.00,,,0.00,346,HR-IXPWINDi_r2_v1.2.,2013-07-12 16:45:00,
2013-07-12 12:50:00,71.2,58.8,30.12,NNE,22,9.0,17.0,65,0.00,,,0.00,320,HR-IXPWINDi_r2_v1.2.,2013-07-12 16:50:00,
2013-07-12 12:55:00,71.5,59.5,30.12,NNE,22,14.0,17.0,66,0.00,,,0.00,193,HR-IXPWINDi_r2_v1.2.,2013-07-12 16:55:00,
2013-07-12 13:00:00,71.0,59.8,30.12,ENE,60,4.0,15.0,68,0.00,,,0.00,211,HR-IXPWINDi_r2_v1.2.,2013-07-12 17:00:00,
2013-07-12 13:05:00,70.9,59.8,30.13,ENE,63,9.0,15.0,68,0.00,,,0.00,186,HR-IXPWINDi_r2_v1.2.,2013-07-12 17:05:00,
2013-07-12 13:11:00,70.6,59.1,30.13,NNE,20,8.0,17.0,67,0.00,,,0.00,139,HR-IXPWINDi_r2_v1.2.,2013-07-12 17:11:00,
2013-07-12 13:16:00,70.2,58.7,30.13,NE,34,9.0,17.0,67,0.00,,,0.00,148,HR-IXPWINDi_r2_v1.2.,2013-07-12 17:16:00,
2013-07-12 13:21:00,70.4,59.3,30.13,NNE,31,11.0,16.0,68,0.00,,,0.00,262,HR-IXPWINDi_r2_v1.2.,2013-07-12 17:21:00,
2013-07-12 13:26:00,70.6,59.5,30.13,ENE,59,5.0,16.0,68,0.00,,,0.00,311,HR-IXPWINDi_r2_v1.2.,2013-07-12 17:26:00,
2013-07-12 13:31:00,71.0,59.4,30.13,NNE,28,11.0,16.0,67,0.00,,,0.00,316,HR-IXPWINDi_r2_v1.2.,2013-07-12 17:31:00,
2013-07-12 13:36:00,71.5,60.3,30.13,NNE,17,9.0,15.0,68,0.00,,,0.00,454,HR-IXPWINDi_r2_v1.2.,2013-07-12 17:36:00,
2013-07-12 13:41:00,72.4,60.3,30.13,NNE,31,14.0,16.0,66,0.00,,,0.00,708,HR-IXPWINDi_r2_v1.2.,2013-07-12 17:41:00,
2013-07-12 13:47:00,73.0,60.5,30.13,East,81,8.0,16.0,65,0.00,,,0.00,589,HR-IXPWINDi_r2_v1.2.,2013-07-12 17:47:00,
2013-07-12 13:52:00,73.1,60.6,30.13,NE,44,7.0,15.0,65,0.00,,,0.00,861,HR-IXPWINDi_r2_v1.2.,2013-07-12 17:52:00,
2013-07-12 13:57:00,73.1,61.0,30.13,NE,56,6.0,14.0,66,0.00,,,0.00,765,HR-IXPWINDi_r2_v1.2.,2013-07-12 17:57:00,
2013-07-12 14:02:00,74.0,61.9,30.13,East,92,7.0,14.0,66,0.00,,,0.00,585,HR-IXPWINDi_r2_v1.2.,2013-07-12 18:02:00,
2013-07-12 14:07:00,73.1,61.4,30.12,NNE,28,7.0,15.0,67,0.00,,,0.00,524,HR-IXPWINDi_r2_v1.2.,2013-07-12 18:07:00,
2013-07-12 14:12:00,74.0,62.3,30.12,North,355,5.0,15.0,67,0.00,,,0.00,918,HR-IXPWINDi_r2_v1.2.,2013-07-12 18:12:00,
2013-07-12 14:18:00,74.6,61.1,30.12,NE,39,9.0,19.0,63,0.00,,,0.00,861,HR-IXPWINDi_r2_v1.2.,2013-07-12 18:18:00,
2013-07-12 14:23:00,74.5,61.9,30.12,NNE,16,10.0,19.0,65,0.00,,,0.00,847,HR-IXPWINDi_r2_v1.2.,2013-07-12 18:23:00,
2013-07-12 14:28:00,74.7,61.7,30.12,NE,46,13.0,16.0,64,0.00,,,0.00,837,HR-IXPWINDi_r2_v1.2.,2013-07-12 18:28:00,
2013-07-12 14:33:00,75.3,62.7,30.12,NE,56,5.0,16.0,65,0.00,,,0.00,826,HR-IXPWINDi_r2_v1.2.,2013-07-12 18:33:00,
2013-07-12 14:39:00,75.4,62.3,30.12,NE,49,3.0,16.0,64,0.00,,,0.00,816,HR-IXPWINDi_r2_v1.2.,2013-07-12 18:39:00,
2013-07-12 14:44:00,75.5,62.0,30.12,NE,46,10.0,16.0,63,0.00,,,0.00,817,HR-IXPWINDi_r2_v1.2.,2013-07-12 18:44:00,
2013-07-12 14:49:00,75.2,62.6,30.13,ENE,76,12.0,16.0,65,0.00,,,0.00,835,HR-IXPWINDi_r2_v1.2.,2013-07-12 18:49:00,
2013-07-12 14:54:00,74.8,61.3,30.13,ENE,58,10.0,18.0,63,0.00,,,0.00,861,HR-IXPWINDi_r2_v1.2.,2013-07-12 18:54:00,
2013-07-12 14:59:00,75.3,61.8,30.13,NE,37,7.0,18.0,63,0.00,,,0.00,819,HR-IXPWINDi_r2_v1.2.,2013-07-12 18:59:00,
2013-07-12 15:04:00,75.7,61.7,30.13,NE,55,4.0,16.0,62,0.00,,,0.00,795,HR-IXPWINDi_r2_v1.2.,2013-07-12 19:04:00,
2013-07-12 15:10:00,75.5,62.0,30.13,ENE,63,11.0,15.0,63,0.00,,,0.00,779,HR-IXPWINDi_r2_v1.2.,2013-07-12 19:10:00,
2013-07-12 15:15:00,75.7,61.2,30.13,NNE,33,7.0,15.0,61,0.00,,,0.00,772,HR-IXPWINDi_r2_v1.2.,2013-07-12 19:15:00,
2013-07-12 15:20:00,75.4,61.9,30.13,NNE,26,9.0,14.0,63,0.00,,,0.00,765,HR-IXPWINDi_r2_v1.2.,2013-07-12 19:20:00,
2013-07-12 15:25:00,75.5,62.9,30.13,NE,49,2.0,14.0,65,0.00,,,0.00,766,HR-IXPWINDi_r2_v1.2.,2013-07-12 19:25:00,
2013-07-12 15:30:00,76.3,62.3,30.13,NE,46,4.0,12.0,62,0.00,,,0.00,633,HR-IXPWINDi_r2_v1.2.,2013-07-12 19:30:00,
2013-07-12 15:36:00,75.8,62.7,30.13,NE,54,7.0,13.0,64,0.00,,,0.00,585,HR-IXPWINDi_r2_v1.2.,2013-07-12 19:36:00,
2013-07-12 15:41:00,75.7,62.6,30.13,NE,42,8.0,13.0,64,0.00,,,0.00,659,HR-IXPWINDi_r2_v1.2.,2013-07-12 19:41:00,
2013-07-12 15:46:00,75.7,62.6,30.13,ENE,76,7.0,12.0,64,0.00,,,0.00,715,HR-IXPWINDi_r2_v1.2.,2013-07-12 19:46:00,
2013-07-12 15:51:00,75.7,62.2,30.13,ESE,110,3.0,12.0,63,0.00,,,0.00,635,HR-IXPWINDi_r2_v1.2.,2013-07-12 19:51:00,
2013-07-12 15:57:00,75.3,61.8,30.13,East,83,10.0,12.0,63,0.00,,,0.00,443,HR-IXPWINDi_r2_v1.2.,2013-07-12 19:57:00,
2013-07-12 16:02:00,74.8,61.8,30.13,NE,44,8.0,13.0,64,0.00,,,0.00,380,HR-IXPWINDi_r2_v1.2.,2013-07-12 20:02:00,
2013-07-12 16:07:00,74.4,61.4,30.13,NE,51,9.0,13.0,64,0.00,,,0.00,388,HR-IXPWINDi_r2_v1.2.,2013-07-12 20:07:00,
2013-07-12 16:12:00,73.8,61.2,30.13,ENE,67,7.0,15.0,65,0.00,,,0.00,373,HR-IXPWINDi_r2_v1.2.,2013-07-12 20:12:00,
2013-07-12 16:17:00,73.6,60.6,30.13,ENE,57,8.0,15.0,64,0.00,,,0.00,327,HR-IXPWINDi_r2_v1.2.,2013-07-12 20:17:00,
2013-07-12 16:23:00,73.1,61.0,30.13,NE,43,5.0,13.0,66,0.00,,,0.00,292,HR-IXPWINDi_r2_v1.2.,2013-07-12 20:23:00,
2013-07-12 16:28:00,72.6,61.4,30.13,ENE,64,11.0,13.0,68,0.00,,,0.00,285,HR-IXPWINDi_r2_v1.2.,2013-07-12 20:28:00,
2013-07-12 16:33:00,72.2,61.0,30.13,ENE,57,9.0,13.0,68,0.00,,,0.00,279,HR-IXPWINDi_r2_v1.2.,2013-07-12 20:33:00,
2013-07-12 16:38:00,72.1,61.7,30.13,ENE,62,10.0,11.0,70,0.00,,,0.00,290,HR-IXPWINDi_r2_v1.2.,2013-07-12 20:38:00,
2013-07-12 16:43:00,71.8,61.8,30.13,NE,51,6.0,13.0,71,0.00,,,0.00,274,HR-IXPWINDi_r2_v1.2.,2013-07-12 20:43:00,
2013-07-12 16:49:00,71.8,61.8,30.14,ENE,58,2.0,13.0,71,0.00,,,0.00,264,HR-IXPWINDi_r2_v1.2.,2013-07-12 20:49:00,
2013-07-12 16:54:00,71.7,62.1,30.14,ENE,60,5.0,11.0,72,0.00,,,0.00,295,HR-IXPWINDi_r2_v1.2.,2013-07-12 20:54:00,
2013-07-12 16:59:00,72.1,61.7,30.13,NE,56,6.0,13.0,70,0.00,,,0.00,362,HR-IXPWINDi_r2_v1.2.,2013-07-12 20:59:00,
2013-07-12 17:04:00,72.4,61.6,30.14,ENE,63,13.0,13.0,69,0.00,,,0.00,345,HR-IXPWINDi_r2_v1.2.,2013-07-12 21:04:00,
2013-07-12 17:09:00,72.5,60.9,30.14,NNE,24,5.0,14.0,67,0.00,,,0.00,244,HR-IXPWINDi_r2_v1.2.,2013-07-12 21:09:00,
2013-07-12 17:15:00,72.4,61.2,30.14,NE,53,9.0,14.0,68,0.00,,,0.00,232,HR-IXPWINDi_r2_v1.2.,2013-07-12 21:15:00,
2013-07-12 17:20:00,72.3,61.1,30.14,NE,38,6.0,13.0,68,0.00,,,0.00,197,HR-IXPWINDi_r2_v1.2.,2013-07-12 21:20:00,
2013-07-12 17:25:00,72.1,60.9,30.14,NE,56,4.0,12.0,68,0.00,,,0.00,179,HR-IXPWINDi_r2_v1.2.,2013-07-12 21:25:00,
2013-07-12 17:30:00,72.2,61.4,30.14,ENE,78,4.0,9.0,69,0.00,,,0.00,265,HR-IXPWINDi_r2_v1.2.,2013-07-12 21:30:00,
2013-07-12 17:35:00,72.4,62.0,30.15,ENE,63,5.0,10.0,70,0.00,,,0.00,221,HR-IXPWINDi_r2_v1.2.,2013-07-12 21:35:00,
2013-07-12 17:41:00,71.6,62.0,30.14,NE,50,3.0,11.0,72,0.00,,,0.00,211,HR-IXPWINDi_r2_v1.2.,2013-07-12 21:41:00,
2013-07-12 17:46:00,71.2,62.0,30.14,NE,44,8.0,11.0,73,0.00,,,0.00,223,HR-IXPWINDi_r2_v1.2.,2013-07-12 21:46:00,
2013-07-12 17:51:00,70.9,61.8,30.14,ENE,69,11.0,13.0,73,0.00,,,0.00,206,HR-IXPWINDi_r2_v1.2.,2013-07-12 21:51:00,
2013-07-12 17:56:00,70.6,61.8,30.14,ENE,74,4.0,13.0,74,0.00,,,0.00,188,HR-IXPWINDi_r2_v1.2.,2013-07-12 21:56:00,
2013-07-12 18:01:00,70.6,61.8,30.14,ENE,58,4.0,12.0,74,0.00,,,0.00,188,HR-IXPWINDi_r2_v1.2.,2013-07-12 22:01:00,
2013-07-12 18:06:00,70.8,61.7,30.14,NE,46,8.0,12.0,73,0.00,,,0.00,193,HR-IXPWINDi_r2_v1.2.,2013-07-12 22:06:00,
2013-07-12 18:12:00,70.5,61.8,30.14,ENE,59,5.0,14.0,74,0.00,,,0.00,200,HR-IXPWINDi_r2_v1.2.,2013-07-12 22:12:00,
2013-07-12 18:17:00,70.4,61.7,30.14,NE,39,3.0,14.0,74,0.00,,,0.00,174,HR-IXPWINDi_r2_v1.2.,2013-07-12 22:17:00,
2013-07-12 18:22:00,70.3,61.6,30.14,ENE,65,11.0,13.0,74,0.00,,,0.00,155,HR-IXPWINDi_r2_v1.2.,2013-07-12 22:22:00,
2013-07-12 18:27:00,70.0,61.3,30.14,East,80,7.0,13.0,74,0.00,,,0.00,142,HR-IXPWINDi_r2_v1.2.,2013-07-12 22:27:00,
2013-07-12 18:32:00,69.7,61.4,30.14,ENE,74,4.0,13.0,75,0.00,,,0.00,128,HR-IXPWINDi_r2_v1.2.,2013-07-12 22:32:00,
2013-07-12 18:38:00,69.7,61.4,30.15,NE,45,3.0,12.0,75,0.00,,,0.00,95,HR-IXPWINDi_r2_v1.2.,2013-07-12 22:38:00,
2013-07-12 18:43:00,69.4,61.1,30.15,ENE,59,4.0,11.0,75,0.00,,,0.00,81,HR-IXPWINDi_r2_v1.2.,2013-07-12 22:43:00,
2013-07-12 18:48:00,69.1,61.2,30.15,East,84,8.0,12.0,76,0.00,,,0.00,70,HR-IXPWINDi_r2_v1.2.,2013-07-12 22:48:00,
2013-07-12 18:53:00,69.0,61.1,30.15,ENE,71,4.0,12.0,76,0.00,,,0.00,69,HR-IXPWINDi_r2_v1.2.,2013-07-12 22:53:00,
2013-07-12 18:58:00,68.8,61.2,30.15,ENE,62,5.0,11.0,77,0.00,,,0.00,65,HR-IXPWINDi_r2_v1.2.,2013-07-12 22:58:00,
2013-07-12 19:03:00,68.7,61.5,30.15,NE,42,2.0,10.0,78,0.00,,,0.00,60,HR-IXPWINDi_r2_v1.2.,2013-07-12 23:03:00,
2013-07-12 19:09:00,68.6,61.4,30.15,NNE,15,8.0,10.0,78,0.00,,,0.00,53,HR-IXPWINDi_r2_v1.2.,2013-07-12 23:09:00,
2013-07-12 19:14:00,68.5,61.7,30.15,NNE,12,5.0,11.0,79,0.00,,,0.00,51,HR-IXPWINDi_r2_v1.2.,2013-07-12 23:14:00,
2013-07-12 19:19:00,68.3,61.5,30.15,ENE,71,5.0,11.0,79,0.00,,,0.00,47,HR-IXPWINDi_r2_v1.2.,2013-07-12 23:19:00,
2013-07-12 19:24:00,68.3,61.5,30.15,NNE,28,3.0,11.0,79,0.00,,,0.00,44,HR-IXPWINDi_r2_v1.2.,2013-07-12 23:24:00,
2013-07-12 19:30:00,68.2,61.7,30.15,NNE,22,7.0,11.0,80,0.00,,,0.00,35,HR-IXPWINDi_r2_v1.2.,2013-07-12 23:30:00,
2013-07-12 19:35:00,68.0,61.5,30.15,ENE,62,4.0,10.0,80,0.00,,,0.00,32,HR-IXPWINDi_r2_v1.2.,2013-07-12 23:35:00,
2013-07-12 19:41:00,67.9,61.8,30.15,NNE,21,5.0,10.0,81,0.00,,,0.00,28,HR-IXPWINDi_r2_v1.2.,2013-07-12 23:41:00,
2013-07-12 19:46:00,67.8,61.7,30.15,NE,48,4.0,9.0,81,0.00,,,0.00,26,HR-IXPWINDi_r2_v1.2.,2013-07-12 23:46:00,
2013-07-12 19:51:00,67.7,61.6,30.15,ENE,66,7.0,9.0,81,0.00,,,0.00,25,HR-IXPWINDi_r2_v1.2.,2013-07-12 23:51:00,
2013-07-12 19:56:00,67.7,61.6,30.16,ENE,76,3.0,10.0,81,0.00,,,0.00,19,HR-IXPWINDi_r2_v1.2.,2013-07-12 23:56:00,
2013-07-12 20:01:00,67.6,61.8,30.15,ENE,74,3.0,10.0,82,0.00,,,0.00,16,HR-IXPWINDi_r2_v1.2.,2013-07-13 00:01:00,
2013-07-12 20:06:00,67.6,61.5,30.15,NE,49,4.0,9.0,81,0.00,,,0.00,11,HR-IXPWINDi_r2_v1.2.,2013-07-13 00:06:00,
2013-07-12 20:12:00,67.6,61.8,30.16,East,92,1.0,10.0,82,0.00,,,0.00,7,HR-IXPWINDi_r2_v1.2.,2013-07-13 00:12:00,
2013-07-12 20:17:00,67.5,61.7,30.16,NNE,26,4.0,10.0,82,0.00,,,0.00,0,HR-IXPWINDi_r2_v1.2.,2013-07-13 00:17:00,
2013-07-12 20:22:00,67.4,61.6,30.16,East,81,3.0,9.0,82,0.00,,,0.00,0,HR-IXPWINDi_r2_v1.2.,2013-07-13 00:22:00,
2013-07-12 20:27:00,67.4,61.6,30.16,NE,49,2.0,8.0,82,0.00,,,0.00,0,HR-IXPWINDi_r2_v1.2.,2013-07-13 00:27:00,
2013-07-12 20:32:00,67.3,61.6,30.16,NNE,24,3.0,10.0,82,0.00,,,0.00,0,HR-IXPWINDi_r2_v1.2.,2013-07-13 00:32:00,
2013-07-12 20:38:00,67.2,61.5,30.16,NE,35,2.0,10.0,82,0.00,,,0.00,0,HR-IXPWINDi_r2_v1.2.,2013-07-13 00:38:00,
2013-07-12 20:43:00,67.2,61.5,30.16,ENE,72,3.0,7.0,82,0.00,,,0.00,0,HR-IXPWINDi_r2_v1.2.,2013-07-13 00:43:00,
2013-07-12 20:48:00,67.2,61.5,30.16,ENE,60,4.0,9.0,82,0.00,,,0.00,0,HR-IXPWINDi_r2_v1.2.,2013-07-13 00:48:00,
2013-07-12 20:53:00,67.1,61.4,30.16,NE,51,4.0,9.0,82,0.00,,,0.00,0,HR-IXPWINDi_r2_v1.2.,2013-07-13 00:53:00,
2013-07-12 20:58:00,67.1,61.4,30.16,NE,40,1.0,8.0,82,0.00,,,0.00,0,HR-IXPWINDi_r2_v1.2.,2013-07-13 00:58:00,
2013-07-12 21:04:00,67.2,61.5,30.17,NNE,32,3.0,7.0,82,0.00,,,0.00,0,HR-IXPWINDi_r2_v1.2.,2013-07-13 01:04:00,
2013-07-12 21:09:00,67.1,61.7,30.17,ENE,60,2.0,7.0,83,0.00,,,0.00,0,HR-IXPWINDi_r2_v1.2.,2013-07-13 01:09:00,
2013-07-12 21:14:00,67.1,61.7,30.17,ENE,57,3.0,7.0,83,0.00,,,0.00,0,HR-IXPWINDi_r2_v1.2.,2013-07-13 01:14:00,
2013-07-12 21:19:00,67.1,61.7,30.17,ENE,64,3.0,7.0,83,0.00,,,0.00,0,HR-IXPWINDi_r2_v1.2.,2013-07-13 01:19:00,
2013-07-12 21:24:00,67.1,61.7,30.17,ENE,75,2.0,5.0,83,0.00,,,0.00,0,HR-IXPWINDi_r2_v1.2.,2013-07-13 01:24:00,
2013-07-12 21:30:00,67.1,61.7,30.18,ENE,61,1.0,5.0,83,0.00,,,0.00,0,HR-IXPWINDi_r2_v1.2.,2013-07-13 01:30:00,
2013-07-12 21:35:00,67.0,61.6,30.18,ENE,61,4.0,5.0,83,0.00,,,0.00,0,HR-IXPWINDi_r2_v1.2.,2013-07-13 01:35:00,
2013-07-12 21:40:00,67.0,61.6,30.17,ENE,74,1.0,6.0,83,0.00,,,0.00,0,HR-IXPWINDi_r2_v1.2.,2013-07-13 01:40:00,
2013-07-12 21:45:00,67.1,62.0,30.18,ENE,70,2.0,6.0,84,0.00,,,0.00,0,HR-IXPWINDi_r2_v1.2.,2013-07-13 01:45:00,
2013-07-12 21:51:00,67.1,62.0,30.18,NE,49,1.0,5.0,84,0.00,,,0.00,0,HR-IXPWINDi_r2_v1.2.,2013-07-13 01:51:00,
2013-07-12 21:56:00,67.1,62.0,30.18,NE,54,2.0,5.0,84,0.00,,,0.00,0,HR-IXPWINDi_r2_v1.2.,2013-07-13 01:56:00,
2013-07-12 22:01:00,67.1,62.0,30.18,ENE,77,0.0,5.0,84,0.00,,,0.00,0,HR-IXPWINDi_r2_v1.2.,2013-07-13 02:01:00,
2013-07-12 22:06:00,67.1,62.0,30.18,NE,53,2.0,5.0,84,0.00,,,0.00,0,HR-IXPWINDi_r2_v1.2.,2013-07-13 02:06:00,
2013-07-12 22:11:00,67.2,62.1,30.18,ENE,76,2.0,6.0,84,0.00,,,0.00,0,HR-IXPWINDi_r2_v1.2.,2013-07-13 02:11:00,
2013-07-12 22:17:00,67.1,62.4,30.18,ENE,72,2.0,7.0,85,0.00,,,0.00,0,HR-IXPWINDi_r2_v1.2.,2013-07-13 02:17:00,
2013-07-12 22:22:00,67.1,62.4,30.18,ENE,57,5.0,8.0,85,0.00,,,0.00,0,HR-IXPWINDi_r2_v1.2.,2013-07-13 02:22:00,
2013-07-12 22:27:00,67.0,62.3,30.18,ENE,66,4.0,8.0,85,0.00,,,0.00,0,HR-IXPWINDi_r2_v1.2.,2013-07-13 02:27:00,
2013-07-12 22:32:00,66.9,62.5,30.18,ENE,71,4.0,7.0,86,0.00,,,0.00,0,HR-IXPWINDi_r2_v1.2.,2013-07-13 02:32:00,
2013-07-12 22:37:00,66.8,62.4,30.18,ESE,105,0.0,7.0,86,0.00,,,0.00,0,HR-IXPWINDi_r2_v1.2.,2013-07-13 02:37:00,
2013-07-12 22:43:00,66.9,62.5,30.18,East,101,3.0,5.0,86,0.00,,,0.00,0,HR-IXPWINDi_r2_v1.2.,2013-07-13 02:43:00,
2013-07-12 22:48:00,66.9,62.8,30.18,East,82,3.0,5.0,87,0.00,,,0.00,0,HR-IXPWINDi_r2_v1.2.,2013-07-13 02:48:00,
2013-07-12 22:53:00,66.8,62.7,30.19,ESE,106,2.0,7.0,87,0.00,,,0.00,0,HR-IXPWINDi_r2_v1.2.,2013-07-13 02:53:00,
2013-07-12 22:58:00,66.7,62.6,30.19,ENE,73,0.0,7.0,87,0.00,,,0.00,0,HR-IXPWINDi_r2_v1.2.,2013-07-13 02:58:00,
2013-07-12 23:03:00,66.6,62.9,30.19,East,90,2.0,9.0,88,0.00,,,0.00,0,HR-IXPWINDi_r2_v1.2.,2013-07-13 03:03:00,
2013-07-12 23:08:00,66.6,62.9,30.19,NE,43,2.0,9.0,88,0.00,,,0.00,0,HR-IXPWINDi_r2_v1.2.,2013-07-13 03:08:00,
2013-07-12 23:14:00,66.5,62.8,30.19,ENE,76,0.0,6.0,88,0.00,,,0.00,0,HR-IXPWINDi_r2_v1.2.,2013-07-13 03:14:00,
2013-07-12 23:19:00,66.5,62.8,30.20,ENE,78,4.0,6.0,88,0.00,,,0.00,0,HR-IXPWINDi_r2_v1.2.,2013-07-13 03:19:00,
2013-07-12 23:24:00,66.4,62.7,30.20,SE,125,1.0,6.0,88,0.00,,,0.00,0,HR-IXPWINDi_r2_v1.2.,2013-07-13 03:24:00,
2013-07-12 23:29:00,66.3,62.9,30.20,East,97,0.0,6.0,89,0.00,,,0.00,0,HR-IXPWINDi_r2_v1.2.,2013-07-13 03:29:00,
2013-07-12 23:34:00,66.3,62.9,30.20,ESE,117,0.0,6.0,89,0.00,,,0.00,0,HR-IXPWINDi_r2_v1.2.,2013-07-13 03:34:00,
2013-07-12 23:40:00,66.2,62.8,30.19,ENE,76,2.0,6.0,89,0.00,,,0.00,0,HR-IXPWINDi_r2_v1.2.,2013-07-13 03:40:00,
2013-07-12 23:45:00,66.1,62.7,30.19,SE,135,2.0,5.0,89,0.00,,,0.00,0,HR-IXPWINDi_r2_v1.2.,2013-07-13 03:45:00,
2013-07-12 23:50:00,66.0,62.9,30.20,SE,138,0.0,7.0,90,0.00,,,0.00,0,HR-IXPWINDi_r2_v1.2.,2013-07-13 03:50:00,
2013-07-12 23:55:00,65.9,62.8,30.20,SE,128,3.0,7.0,90,0.00,,,0.00,0,HR-IXPWINDi_r2_v1.2.,2013-07-13 03:55:00,